GW3498 Weather Reports


Display with metric or nautical units.
time (UTC)temp
F
wind
direction
speed
MPH
gust
MPH
rain 1hr
in
rain 24hr
in
rain mn
in
humidity
%
barometer
mb
20260506163024 60 223 0.0 1.0 0.00 0.05 0.05 75 1013.0
20260506162018 60 197 0.0 1.0 0.00 0.05 0.05 77 1013.0
20260506161033 60 141 0.0 1.0 0.00 0.05 0.05 76 1012.8
20260506160027 60 217 0.0 1.0 0.00 0.05 0.05 76 1012.9
20260506155022 61 93 0.0 2.0 0.00 0.05 0.05 75 1013.1
20260506154016 61 150 1.0 3.0 0.00 0.05 0.05 73 1013.0
20260506153032 61 189 0.0 2.0 0.00 0.05 0.05 75 1013.1
20260506152027 61 138 1.0 3.0 0.00 0.05 0.05 74 1013.0
20260506151023 61 144 1.0 2.0 0.00 0.05 0.05 74 1013.1
20260506150017 61 106 0.0 3.0 0.00 0.05 0.05 73 1013.1
20260506145031 61 141 1.0 3.0 0.00 0.05 0.05 74 1013.1
20260506144026 62 193 1.0 3.0 0.00 0.05 0.05 74 1013.1
20260506143021 62 153 1.0 2.0 0.00 0.05 0.05 69 1013.0
20260506142035 63 208 1.0 4.0 0.00 0.05 0.05 67 1012.9
20260506141030 63 188 2.0 6.0 0.00 0.05 0.05 66 1013.1
20260506140024 64 173 2.0 7.0 0.00 0.05 0.05 65 1013.0
20260506135039 64 160 1.0 4.0 0.00 0.05 0.05 64 1013.0
20260506134034 64 220 2.0 7.0 0.00 0.05 0.05 64 1013.0
20260506133028 64 191 2.0 6.0 0.00 0.05 0.05 64 1013.1
20260506132022 65 178 2.0 6.0 0.00 0.05 0.05 64 1013.1
20260506131019 65 170 2.0 4.0 0.00 0.05 0.05 63 1013.0
20260506130033 66 148 1.0 3.0 0.00 0.05 0.05 63 1013.1
20260506125028 66 136 1.0 4.0 0.00 0.05 0.05 62 1013.1
20260506124022 65 172 2.0 6.0 0.00 0.05 0.05 60 1013.2
20260506123017 65 182 2.0 7.0 0.00 0.05 0.05 62 1013.4
20260506122032 66 171 3.0 7.0 0.00 0.05 0.05 60 1013.2
20260506121027 66 203 2.0 4.0 0.00 0.05 0.05 60 1013.2
20260506120022 66 182 3.0 8.0 0.00 0.05 0.05 64 1013.2
20260506115035 67 191 1.0 4.0 0.00 0.05 0.05 70 1013.2
20260506114032 68 196 1.0 4.0 0.00 0.05 0.05 68 1013.3
20260506113046 67 207 1.0 3.0 0.00 0.05 0.05 71 1013.1
20260506112020 67 147 1.0 4.0 0.00 0.05 0.05 73 1013.1
20260506111034 66 182 1.0 4.0 0.00 0.05 0.05 72 1013.2
20260506110029 65 192 1.0 6.0 0.00 0.05 0.05 77 1013.4
20260506105024 64 139 1.0 3.0 0.00 0.05 0.05 79 1013.5
20260506104018 63 181 1.0 4.0 0.00 0.05 0.05 81 1013.5
20260506103052 63 166 2.0 6.0 0.00 0.05 0.05 82 1013.4
20260506102027 62 174 2.0 6.0 0.01 0.05 0.05 83 1013.4
20260506101021 61 147 2.0 7.0 0.01 0.05 0.05 83 1013.5
20260506100036 61 200 1.0 2.0 0.01 0.05 0.05 85 1013.5
20260506095051 61 173 2.0 4.0 0.01 0.05 0.05 85 1013.4
20260506094025 58 164 1.0 4.0 0.01 0.05 0.05 87 1013.6
20260506093019 58 183 1.0 4.0 0.01 0.05 0.05 90 1013.5
20260506092035 57 149 1.0 2.0 0.00 0.04 0.04 89 1013.6
20260506091029 57 156 1.0 3.0 0.00 0.04 0.04 88 1013.6
20260506090023 58 180 1.0 2.0 0.00 0.04 0.04 89 1013.4
20260506085017 57 169 1.0 2.0 0.00 0.04 0.04 90 1013.5
20260506084052 57 177 1.0 2.0 0.00 0.04 0.04 89 1013.3
20260506083027 58 170 1.0 3.0 0.00 0.04 0.04 88 1013.1
20260506082021 58 181 1.0 3.0 0.00 0.04 0.04 87 1013.1
20260506081037 58 177 1.0 3.0 0.00 0.04 0.04 87 1012.9
20260506073016 57 177 1.0 6.0 0.00 0.04 0.04 89 1012.9
20260506072031 56 175 1.0 2.0 0.00 0.04 0.04 92 1013.1
20260506071027 56 181 1.0 2.0 0.00 0.04 0.04 92 1013.2
20260506062019 55 178 0.0 1.0 0.03 0.09 0.04 95 1013.2
20260506061032 55 179 1.0 2.0 0.03 0.16 0.04 95 1013.2
20260506051018 55 174 0.0 1.0 0.00 0.21 0.01 94 1013.2
20260506045031 54 187 0.0 1.0 0.00 0.21 0.01 94 1013.3
20260506044022 54 168 0.0 1.0 0.00 0.21 0.01 93 1013.3
20260506043017 54 172 0.0 1.0 0.00 0.23 0.01 93 1013.3
20260506042031 54 173 0.0 2.0 0.00 0.23 0.01 92 1013.3
20260506041026 54 171 0.0 2.0 0.00 0.24 0.01 93 1013.2
20260506040020 54 181 0.0 1.0 0.00 0.25 0.01 92 1013.2
20260506035037 54 0.0 0.0 0.00 0.27 0.01 92 1013.2
20260506034050 54 169 0.0 1.0 0.00 0.29 0.01 92 1013.2
20260506033026 54 177 0.0 1.0 0.00 0.30 0.01 92 1013.2
20260506032020 54 228 0.0 1.0 0.00 0.32 0.01 93 1013.3
20260506031035 54 203 0.0 1.0 0.00 0.34 0.01 93 1013.3
20260506030029 54 174 0.0 1.0 0.01 0.36 0.01 92 1013.5
20260506025024 54 0.0 0.0 0.01 0.37 0.01 92 1013.5
20260506024019 55 156 0.0 1.0 0.01 0.37 0.01 91 1013.5
20260506023033 54 357 0.0 2.0 0.01 0.37 0.01 89 1013.7
20260506022028 55 0.0 0.0 0.01 0.37 0.01 88 1013.7
20260506021021 55 358 1.0 2.0 0.01 0.37 0.01 86 1013.9
20260506020036 56 189 0.0 1.0 0.00 0.36 0.00 85 1013.9
20260506015030 56 166 0.0 1.0 0.00 0.36 0.00 83 1013.8
20260506014025 56 175 0.0 1.0 0.00 0.36 0.00 83 1013.8
20260506013019 56 145 0.0 2.0 0.00 0.36 0.00 82 1013.8
20260506012053 56 159 1.0 2.0 0.00 0.36 0.00 79 1013.8
20260506011048 57 175 1.0 2.0 0.00 0.36 0.00 75 1013.8
20260506010044 56 175 1.0 2.0 0.00 0.36 0.00 75 1013.8
20260506005016 56 188 0.0 1.0 0.00 0.36 0.00 76 1013.9
20260506004031 56 168 0.0 1.0 0.00 0.36 0.00 77 1013.9
20260506003026 55 206 0.0 2.0 0.00 0.36 0.00 80 1014.0
20260506002021 55 169 0.0 2.0 0.00 0.36 0.00 81 1014.1
20260506001037 55 0.0 0.0 0.00 0.36 0.00 82 1014.3
20260506000030 55 172 0.0 1.0 0.00 0.36 0.00 83 1014.3
20260505235025 55 175 0.0 2.0 0.00 0.36 0.00 82 1014.4
20260505234100 55 177 0.0 1.0 0.00 0.36 0.00 82 1014.3
20260505233034 56 122 0.0 1.0 0.00 0.36 0.00 82 1014.2
20260505232029 56 162 1.0 2.0 0.00 0.36 0.00 81 1014.2
20260505231022 56 166 1.0 3.0 0.00 0.36 0.00 80 1014.2
20260505230017 56 171 1.0 2.0 0.00 0.36 0.00 79 1014.3
20260505225032 56 167 1.0 3.0 0.00 0.36 0.00 79 1014.5
20260505224026 55 189 1.0 2.0 0.00 0.36 0.00 80 1014.4
20260505223020 56 168 1.0 2.0 0.00 0.36 0.00 81 1014.5
20260505222035 56 155 1.0 2.0 0.00 0.36 0.00 81 1014.6
20260505221028 56 152 0.0 2.0 0.00 0.36 0.00 79 1014.9
20260505220023 56 179 1.0 3.0 0.00 0.36 0.36 80 1014.9
20260505215017 55 181 1.0 2.0 0.00 0.36 0.36 82 1014.8
20260505214051 55 190 0.0 1.0 0.00 0.36 0.36 85 1014.9
20260505213026 54 207 0.0 1.0 0.00 0.36 0.36 87 1015.1
20260505212021 54 219 0.0 1.0 0.00 0.36 0.36 85 1015.2
20260505211016 55 0.0 0.0 0.00 0.36 0.36 84 1015.2
20260505210033 55 196 0.0 1.0 0.00 0.36 0.36 83 1015.3
20260505205613 55 142 0.0 1.0 0.00 0.36 0.36 83 1015.5
20260505204521 55 134 0.0 2.0 0.00 0.36 0.36 85 1015.3
20260505203535 55 164 0.0 1.0 0.00 0.36 0.36 85 1015.3
20260505202530 55 161 0.0 2.0 0.00 0.36 0.36 84 1015.4
20260505201526 56 151 0.0 1.0 0.00 0.36 0.36 84 1015.4
20260505200523 56 157 0.0 2.0 0.00 0.36 0.36 84 1015.4
20260505195518 56 121 0.0 1.0 0.00 0.36 0.36 84 1015.3
20260505194532 56 162 0.0 1.0 0.00 0.36 0.36 86 1015.2
20260505193527 56 180 0.0 1.0 0.00 0.36 0.36 86 1015.0
20260505192522 56 181 0.0 1.0 0.00 0.36 0.36 85 1014.9
20260505191517 56 179 0.0 1.0 0.00 0.36 0.36 85 1014.8
20260505190552 55 0.0 0.0 0.00 0.36 0.36 85 1014.9
20260505185527 56 0.0 0.0 0.00 0.36 0.36 84 1014.8
20260505184523 56 130 0.0 1.0 0.00 0.36 0.36 83 1014.7
20260505183518 56 323 0.0 1.0 0.00 0.36 0.36 82 1014.9
20260505182533 57 176 0.0 1.0 0.00 0.36 0.36 82 1014.7
20260505181526 57 168 0.0 1.0 0.00 0.36 0.36 82 1014.5
20260505180521 58 162 0.0 1.0 0.00 0.36 0.36 80 1014.6
20260505175517 58 181 0.0 1.0 0.00 0.36 0.36 79 1014.5
20260505174531 59 163 0.0 2.0 0.00 0.36 0.36 78 1014.5
20260505173526 59 160 0.0 1.0 0.00 0.36 0.36 78 1014.7
20260505172520 59 137 0.0 1.0 0.00 0.36 0.36 76 1014.7
20260505171535 60 137 1.0 2.0 0.00 0.36 0.36 76 1014.8
20260505170530 60 157 0.0 1.0 0.00 0.36 0.36 76 1014.8
20260505165525 61 160 1.0 6.0 0.00 0.36 0.36 76 1014.9
20260505164520 61 179 0.0 2.0 0.00 0.36 0.36 74 1014.9